Dewpoint
51 51 51 50 50 50 50 50 51 50 50 50 50 51 52 53 53 43 32 39 45 57 55 39 37 37 37 32 26 23 19 18 17 16 15 16 20 23 22 19 22 24 25 32 56
50 50 50 50 49 49 50 49 50 49 49 49 50 51 52 53 49 40 45 57 58 58 33 27 29 36 34 28 24 21 18 18 19 18 17 18 20 15 20 24 23 29 29 48 56
48 48 48 48 48 48 48 49 49 48 48 50 50 51 52 52 43 32 59 55 56 55 34 32 27 29 30 29 26 22 18 19 19 19 18 18 16 16 15 14 21 21 26 50 54
48 47 46 47 47 48 48 49 48 47 47 48 48 51 53 50 17 37 57 58 57 48 37 31 29 27 27 27 27 23 22 20 18 18 16 15 18 19 18 16 20 19 20 29 49
49 48 46 45 46 47 48 49 49 47 47 47 48 51 49 38 36 32 58 57 48 43 36 33 32 30 27 27 25 24 22 22 21 19 18 20 19 22 20 20 21 20 21 25 43
50 50 48 46 46 47 48 48 48 48 47 47 48 52 48 35 27 35 38 29 26 16 20 25 26 26 27 27 26 27 26 25 25 23 20 19 20 21 22 22 22 22 26 27 35
49 49 49 48 47 47 48 48 47 48 47 47 49 49 41 34 26 25 26 16 17 15 14 22 19 21 23 26 25 26 25 25 24 23 21 20 18 19 20 21 21 21 21 27 37
50 49 49 50 49 49 48 47 47 47 48 48 51 46 39 37 35 29 21 12 13 13 15 16 18 19 22 19 16 14 18 21 24 25 24 22 19 21 21 21 20 20 21 27 37
49 50 50 49 49 48 47 46 46 47 49 50 47 45 40 40 29 26 20 25 24 16 13 10 15 13 14 12 12 14 12 16 18 23 23 23 21 23 29 21 20 21 23 28 32
49 49 49 49 49 47 46 46 45 47 45 43 43 40 41 27 16 11 14 18 21 26 27 14 12 7 7 4 4 11 14 15 17 20 26 26 27 28 30 25 20 25 27 27 28
48 48 48 49 48 46 43 38 29 33 29 34 31 36 35 25 11 11 17 18 18 27 30 29 22 14 9 3 2 5 9 10 12 20 25 25 27 27 28 28 21 22 27 28 28
48 48 48 48 47 45 42 36 30 30 30 29 28 25 22 19 14 13 18 20 18 24 28 27 23 20 11 7 4 5 8 9 11 21 21 23 27 29 30 29 28 24 23 22 27
48 48 48 47 46 42 34 34 34 37 32 26 21 20 21 20 17 14 19 20 17 21 25 23 24 24 21 19 15 14 15 13 10 15 22 25 27 29 29 27 25 24 24 24 33
47 47 47 46 40 34 33 36 36 40 32 24 19 17 17 25 23 18 21 19 17 15 18 16 18 19 18 16 16 15 19 18 16 16 15 24 21 28 27 24 24 22 23 24 30
46 47 47 46 37 34 34 39 37 39 19 15 17 19 23 25 26 26 26 24 18 16 14 14 10 10 8 8 13 15 24 21 20 19 18 18 17 23 23 21 21 22 24 24 25
45 46 46 41 38 36 35 38 38 29 17 9 24 23 23 25 26 22 23 24 25 22 20 18 16 14 11 12 13 23 25 23 21 20 17 18 18 18 19 20 21 23 23 25 25
45 46 43 39 34 35 37 37 26 22 6 -1 11 21 19 21 23 20 22 23 23 20 20 19 16 15 15 13 14 21 21 21 20 18 17 19 19 19 25 23 22 22 24 30 32
45 45 42 38 38 38 39 30 20 14 8 6 6 9 14 14 12 14 16 16 17 20 19 17 15 15 16 13 9 20 19 23 18 19 18 25 27 27 28 29 30 24 26 34 47
44 38 38 38 39 40 36 23 15 11 11 9 8 7 10 12 11 9 13 12 9 24 23 22 18 23 23 21 11 11 17 19 23 23 23 25 25 27 38 37 36 26 25 34 43
38 37 36 38 42 39 32 23 18 16 15 17 13 9 9 8 6 5 3 11 15 29 21 21 20 20 19 23 21 13 16 16 24 22 21 20 20 25 33 36 37 32 32 32 41
36 32 35 39 41 36 26 22 20 20 20 16 15 9 10 9 7 6 7 6 11 26 17 10 17 16 18 19 28 30 16 15 18 27 22 21 22 34 39 41 41 37 32 32 36
37 28 37 42 33 34 27 24 25 20 21 19 17 14 12 12 9 9 10 12 12 12 8 14 13 12 11 14 29 33 32 29 13 16 24 22 21 27 35 36 41 37 36 39 38
33 31 37 40 26 28 26 23 23 21 20 19 16 14 15 12 11 12 13 16 14 14 15 15 22 21 16 11 14 25 28 32 31 22 18 20 23 27 29 40 41 37 36 35 32
34 25 30 34 34 30 29 27 27 26 20 18 16 15 15 15 14 14 13 16 20 19 36 29 21 19 18 20 20 17 16 21 30 31 31 27 25 25 29 37 38 38 36 32 30
33 27 28 19 29 29 29 26 25 27 29 22 15 15 15 14 16 15 16 16 16 22 25 24 19 19 18 16 15 14 13 12 13 18 30 29 29 31 32 36 37 38 34 25 25
30 30 31 29 28 28 29 26 23 21 32 29 28 25 25 17 15 21 27 27 27 29 29 27 20 20 17 14 12 13 14 13 12 12 15 17 19 23 18 23 22 30 26 27 27
36 35 34 27 30 27 29 24 24 30 27 20 27 27 25 25 30 31 31 31 30 28 27 28 25 22 18 17 15 14 16 14 11 10 13 13 16 19 13 12 37 43 44 44 45
Lifted_Index
15 15 15 15 15 15 15 15 16 16 16 16 16 15 15 14 14 13 11 11 11 11 10 10 9 9 9 8 8 8 7 6 5 4 4 4 3 3 4 5 5 5 5 3 1
15 15 15 15 16 16 16 16 16 16 16 16 16 15 15 14 13 12 11 11 11 10 10 10 9 9 8 8 8 8 7 6 6 5 5 5 4 4 4 5 5 5 4 3 1
15 16 16 16 16 16 16 16 16 16 17 16 16 15 14 13 11 10 10 10 10 10 10 10 9 8 8 7 7 7 7 7 6 6 5 5 5 5 4 4 5 5 4 2 1
16 16 16 17 17 17 16 16 16 17 17 17 16 15 14 12 10 10 9 9 10 10 10 9 9 8 7 7 7 7 7 7 7 6 5 5 5 5 5 4 4 4 4 3 1
15 16 16 17 17 17 16 16 16 16 17 17 16 14 13 11 11 11 11 10 10 10 10 9 8 7 7 7 7 7 7 7 7 6 5 4 4 4 4 4 4 4 4 4 3
15 15 15 16 16 16 16 16 16 16 16 16 15 14 12 11 11 12 12 12 12 11 11 9 8 8 7 7 7 7 7 7 6 6 5 4 4 4 4 4 4 4 4 4 4
14 14 14 15 15 15 16 16 16 16 16 15 14 13 11 11 11 12 12 12 12 12 11 10 9 9 8 7 7 6 6 6 5 5 4 3 3 4 3 3 3 3 4 4 4
13 13 13 14 14 15 15 15 15 15 15 14 12 11 10 10 11 11 11 11 11 11 11 10 9 9 8 7 7 6 5 5 5 4 3 3 3 3 3 2 2 3 3 4 4
13 13 13 13 13 14 14 14 14 14 13 12 11 10 9 9 10 10 10 10 10 10 10 9 9 9 8 7 6 5 4 4 4 4 3 2 3 3 2 2 2 2 3 3 3
13 13 13 13 13 14 14 13 12 12 11 10 9 9 9 9 10 10 10 10 9 8 8 8 8 8 7 5 4 4 4 5 5 4 3 3 3 2 2 2 1 1 2 2 2
13 13 13 13 13 13 13 12 12 11 10 9 9 9 9 9 9 9 9 9 8 7 6 6 6 6 5 5 5 5 5 5 5 4 3 3 3 2 1 1 1 1 1 2 2
12 12 12 13 13 13 12 12 12 11 10 10 9 9 9 9 9 8 8 8 6 5 5 5 5 4 5 5 5 5 5 5 5 4 4 4 4 3 1 1 1 1 1 2 2
12 12 12 12 12 12 11 11 11 11 10 9 9 8 8 8 7 7 7 6 5 4 4 4 4 4 4 5 5 5 4 4 4 4 4 3 3 3 1 1 2 1 1 2 2
12 11 11 11 11 11 10 10 9 9 8 8 7 7 7 7 6 6 6 5 5 4 4 4 4 4 4 4 4 4 3 3 3 3 3 3 3 3 2 2 2 2 1 2 2
11 11 10 10 10 10 10 9 8 7 5 6 6 6 6 5 5 4 4 4 4 3 4 4 4 4 4 4 4 3 2 2 2 3 3 3 3 3 2 2 2 2 1 1 2
11 11 10 10 10 10 9 8 7 6 4 4 4 4 4 4 3 3 3 3 3 3 3 4 4 4 4 4 3 2 2 1 1 2 2 3 3 3 3 2 2 1 1 1 2
11 10 10 10 10 9 9 7 6 6 5 4 3 2 3 3 3 2 2 2 2 2 2 3 3 3 3 2 2 2 1 1 1 1 1 2 3 3 3 2 1 1 1 1 1
10 10 10 9 8 8 7 6 6 6 5 3 2 1 2 2 2 1 1 1 1 1 1 1 2 2 1 1 1 1 1 1 0 0 1 2 2 2 2 1 0 1 1 -0 -1
8 8 8 7 6 6 5 5 6 6 4 3 2 1 1 2 2 1 1 0 0 -0 -0 -0 1 1 0 0 0 1 1 1 1 1 1 2 2 2 1 0 0 0 0 -0 -1
7 7 6 5 4 4 4 5 5 5 3 2 2 2 1 1 2 2 1 1 -0 -1 -1 -0 0 0 0 -0 0 1 1 1 1 0 1 1 2 1 1 1 1 1 0 0 -1
6 6 5 4 3 3 3 4 4 4 3 2 2 2 1 1 2 2 2 1 0 -0 0 1 1 1 0 0 0 0 1 1 1 1 1 1 1 1 1 1 1 1 1 0 -0
6 6 4 3 2 2 2 2 3 3 2 1 1 2 2 2 2 2 2 1 1 1 1 2 2 1 1 1 1 0 0 0 1 1 1 1 1 1 1 1 1 1 1 1 0
6 5 4 3 2 2 2 1 2 2 1 1 1 2 2 2 2 2 2 2 2 2 2 2 2 2 2 2 1 1 1 1 1 1 1 1 1 1 1 1 2 2 2 2 2
6 5 4 3 2 2 1 1 1 1 1 0 1 2 2 2 3 3 3 2 2 2 2 1 2 2 2 2 1 1 1 1 1 1 1 1 2 1 1 1 2 2 3 3 3
5 4 3 2 2 1 1 1 1 1 0 0 0 1 1 2 2 2 2 2 2 2 1 1 2 2 2 2 2 1 2 2 2 1 1 2 2 1 1 2 2 2 3 3 3
4 4 3 2 1 1 0 0 0 1 1 0 0 0 1 1 1 1 1 1 1 1 1 1 1 2 2 3 2 2 2 2 2 2 2 2 2 2 2 2 2 1 2 2 2
4 3 3 2 1 0 0 0 0 0 1 1 0 0 0 0 1 0 1 1 1 1 1 1 1 1 2 3 2 2 2 2 2 2 2 2 1 2 3 2 1 0 0 1 1